781  
ASUS41 KALY 141610  
RWRALY  
 
NEW YORK STATE HOURLY WEATHER ROUNDUP  
NATIONAL WEATHER SERVICE ALBANY NY  
1200 PM EDT TUE AUG 14 2018  
 
NOTE: "FAIR" INDICATES FEW OR NO CLOUDS BELOW 12,000 FEET WITH NO  
SIGNIFICANT WEATHER AND/OR NO S TO VISIBILITY
.  
 
NYZ032-033-038>043-046>054-057>066-NYZ062>081-082-084-141700-  
EAST  
 
 
CITY SKY/WX TMP DP RH WIND PRES REMARKS
 
ALBANY PTSUNNY 80 67 64 S14 29.86S  
GLENS FALLS FAIR 78 69 73 S9 29.86S  
POUGHKEEPSIE PTSUNNY 79 67 66 SW6 29.84F  
NEWBURGH MOSUNNY 79 70 73 S12 29.88F  
MONTGOMERY FAIR 79 69 71 S7 29.86F  
WHITE PLAINS PTSUNNY 79 70 74 S9 29.88S  
ISLIP PTSUNNY 80 71 74 S12 29.88F  
NEW YORK CITY FAIR 83 66 56 SW10 29.87S  
CENTRAL PARK FAIR 78 69 73 VRB3 29.90F  

 
 
NYZ005>009-017-018-044>046-055-056-141700-  
CENTRAL  
 
 
CITY SKY/WX TMP DP RH WIND PRES REMARKS
 
FULTON LGT RAIN 72 67 84 NW7 29.84F  
SYRACUSE LGT RAIN 70 70 100 W13 29.84S  
ROME PTSUNNY 76 72 87 SE7 29.83F  
ELMIRA RAIN N/A N/A N/A MISG N/A  
BINGHAMTON LGT RAIN 67 65 93 NW7 29.88F  
MONTICELLO PTSUNNY 68 65 90 W7 29.92R  

 
 
NYZ026>034-041>043-087-141700-  
NORTH  
 
 
CITY SKY/WX TMP DP RH WIND PRES REMARKS
 
WATERTOWN RAIN 72 71 97 NE12 29.84S FOG  
FORT DRUM NOT AVBL  
OGDENSBURG LGT RAIN 74 70 89 E3 29.86S  
MASSENA CLOUDY 76 72 87 E6 29.87F  
SARANAC LAKE CLOUDY 72 68 87 NE5 29.89S  
PLATTSBURGH PTSUNNY 73 70 90 VRB3 29.86F  

 
 
NYZ001>004-010>016-019>021-085-141700-  
WEST  
 
 
CITY SKY/WX TMP DP RH WIND PRES REMARKS
 
NIAGARA FALLS PTSUNNY 75 64 68 W8 29.91F  
BUFFALO CLOUDY 74 65 73 W6 29.92F  
DUNKIRK FAIR 75 71 87 W7 29.95S  
JAMESTOWN FAIR 69 65 86 W7 30.00S  
WELLSVILLE LGT RAIN 67 65 93 W13 29.98F FOG  
ROCHESTER RAIN 69 68 96 NW9 29.89F FOG  
PENN YAN CLOUDY 70 66 87 NW6 29.89S  

 
 
KEY  
WCI = WIND CHILL INDEX  
VSB = VISIBILITY  
HX = HEAT INDEX  

 
 
 
CLICK HERE TO GO TO PREVIOUS BULLETINS.

The Nexlab NY Page
The Nexlab VT Page
The Nexlab MA Page
The Nexlab CT Page Main Text Page